TimeCDT,TemperatureF,Dew PointF,Humidity,Sea Level PressureIn,VisibilityMPH,Wind Direction,Wind SpeedMPH,Gust SpeedMPH,PrecipitationIn,Events,Conditions,WindDirDegrees,DateUTC
12:53 AM,50.0,39.9,68,30.36,10.0,SE,5.8,-,N/A,,Clear,140,2013-03-27 05:53:00
1:53 AM,53.1,41.0,64,30.34,10.0,SSE,5.8,-,N/A,,Clear,150,2013-03-27 06:53:00
2:53 AM,52.0,39.9,63,30.32,10.0,SE,3.5,-,N/A,,Clear,140,2013-03-27 07:53:00
3:53 AM,52.0,39.9,63,30.31,10.0,SSE,5.8,-,N/A,,Clear,160,2013-03-27 08:53:00
4:53 AM,48.9,37.9,66,30.31,10.0,East,6.9,-,N/A,,Clear,100,2013-03-27 09:53:00
5:53 AM,48.0,37.0,66,30.31,10.0,East,5.8,-,N/A,,Clear,80,2013-03-27 10:53:00
6:53 AM,43.0,34.0,71,30.31,-9999.0,ENE,6.9,-,N/A,,Clear,60,2013-03-27 11:53:00
7:53 AM,45.0,36.0,71,30.32,-9999.0,ENE,5.8,-,N/A,,Clear,70,2013-03-27 12:53:00
8:53 AM,57.0,44.1,62,30.34,-9999.0,East,5.8,-,N/A,,Clear,100,2013-03-27 13:53:00
9:53 AM,64.0,39.9,41,30.35,10.0,SE,15.0,-,N/A,,Clear,130,2013-03-27 14:53:00
10:53 AM,66.0,37.9,36,30.35,10.0,SE,17.3,21.9,N/A,,Clear,140,2013-03-27 15:53:00
11:53 AM,66.9,41.0,39,30.35,10.0,ESE,15.0,23.0,N/A,,Clear,120,2013-03-27 16:53:00
12:53 PM,68.0,44.1,42,30.34,10.0,SE,16.1,-,N/A,,Clear,140,2013-03-27 17:53:00
1:53 PM,68.0,45.0,43,30.32,10.0,SE,16.1,24.2,N/A,,Scattered Clouds,140,2013-03-27 18:53:00
3:53 PM,68.0,48.0,49,30.26,10.0,SE,17.3,-,N/A,,Partly Cloudy,140,2013-03-27 20:53:00
4:53 PM,66.9,48.9,52,30.24,10.0,SE,15.0,23.0,N/A,,Overcast,130,2013-03-27 21:53:00
5:53 PM,66.0,48.9,54,30.23,10.0,SE,18.4,-,N/A,,Overcast,140,2013-03-27 22:53:00
6:53 PM,64.9,48.9,56,30.23,10.0,SE,16.1,-,N/A,,Overcast,130,2013-03-27 23:53:00
7:53 PM,64.9,51.1,61,30.23,10.0,SE,15.0,-,N/A,,Overcast,130,2013-03-28 00:53:00
8:53 PM,64.9,52.0,63,30.24,10.0,SE,10.4,-,N/A,,Overcast,140,2013-03-28 01:53:00
9:53 PM,64.9,52.0,63,30.24,10.0,SSE,10.4,-,N/A,,Overcast,150,2013-03-28 02:53:00
10:53 PM,64.9,53.1,65,30.25,10.0,SSE,9.2,-,N/A,,Overcast,150,2013-03-28 03:53:00
11:53 PM,64.9,54.0,68,30.24,10.0,SSE,8.1,-,N/A,,Overcast,150,2013-03-28 04:53:00